EW8775 Weather Reports


Display with metric or nautical units.
time (UTC)temp
F
wind
direction
speed
MPH
gust
MPH
rain 1hr
in
rain 24hr
in
rain mn
in
humidity
%
barometer
mb
20260904063016 75 135 5.0 15.0 0.00 0.00 0.00 16 1011.3
20260904060016 76 135 7.0 17.0 0.00 0.00 0.00 16 1011.1
20260904053017 76 135 6.0 17.0 0.00 0.00 0.00 16 1011.1
20260904050057 77 113 5.0 17.0 0.00 0.00 0.00 16 1010.7
20260904043017 77 113 4.0 15.0 0.00 0.00 0.00 17 1010.7
20260904040017 76 113 4.0 12.0 0.00 0.00 0.00 17 1010.3
20260904033017 76 113 3.0 16.0 0.00 0.00 0.00 20 1009.8
20260904030017 77 113 2.0 10.0 0.00 0.00 0.00 20 1009.4
20260904023017 77 113 2.0 14.0 0.00 0.00 0.00 18 1009.1
20260904020017 78 0.0 7.0 0.00 0.00 0.00 20 1008.6
20260904013018 80 158 2.0 10.0 0.00 0.00 0.00 23 1009.1
20260904010057 81 180 4.0 12.0 0.00 0.00 0.00 21 1009.5
20260904003017 83 180 3.0 12.0 0.00 0.00 0.00 17 1009.7
20260904000017 83 180 4.0 13.0 0.00 0.00 0.00 15 1010.2
20260903233056 83 180 4.0 13.0 0.00 0.00 0.00 15 1010.1
20260903230017 84 180 4.0 11.0 0.00 0.00 0.00 16 1011.1
20260903223016 83 180 5.0 16.0 0.00 0.00 0.00 17 1011.6
20260903220017 83 180 6.0 17.0 0.00 0.00 0.00 16 1012.0
20260903213016 83 158 4.0 13.0 0.00 0.00 0.00 15 1012.3
20260903210016 82 180 5.0 13.0 0.00 0.00 0.00 17 1012.8
20260903203016 81 203 4.0 16.0 0.00 0.00 0.00 17 1013.4
20260903200016 80 180 5.0 15.0 0.00 0.00 0.00 16 1013.8
20260903193016 79 180 5.0 15.0 0.00 0.00 0.00 19 1014.4
20260903190016 78 180 5.0 15.0 0.00 0.00 0.00 20 1014.8
20260903183016 77 180 5.0 18.0 0.00 0.00 0.00 19 1015.3
20260903180016 76 180 5.0 15.0 0.00 0.00 0.00 20 1015.5
20260903173056 75 180 4.0 13.0 0.00 0.00 0.00 19 1015.3
20260903170016 74 180 3.0 12.0 0.00 0.00 0.00 19 1015.4
20260903163016 73 180 3.0 11.0 0.00 0.00 0.00 19 1015.3
20260903160015 72 158 4.0 13.0 0.00 0.00 0.00 18 1015.3
20260903153015 71 158 4.0 14.0 0.00 0.00 0.00 22 1015.1
20260903150055 68 113 5.0 14.0 0.00 0.00 0.00 21 1014.7
20260903143016 65 113 2.0 10.0 0.00 0.00 0.00 23 1014.0
20260903140017 65 113 1.0 9.0 0.00 0.00 0.00 22 1014.1
20260903133017 63 0.0 6.0 0.00 0.00 0.00 26 1013.4
20260903130017 63 113 1.0 8.0 0.00 0.00 0.00 24 1013.3
20260903123017 64 113 2.0 9.0 0.00 0.00 0.00 23 1013.6
20260903120017 64 113 1.0 7.0 0.00 0.00 0.00 22 1013.3
20260903113017 65 0.0 8.0 0.00 0.00 0.00 22 1013.3
20260903110017 64 0.0 7.0 0.00 0.00 0.00 21 1013.1
20260903103017 66 0.0 5.0 0.00 0.00 0.00 22 1013.2
20260903100017 67 113 1.0 11.0 0.00 0.00 0.00 19 1013.3
20260903093017 67 113 1.0 10.0 0.00 0.00 0.00 21 1013.3
20260903090057 68 113 2.0 10.0 0.00 0.00 0.00 20 1013.2
20260903083017 69 113 1.0 9.0 0.00 0.00 0.00 20 1013.3
20260903080017 71 113 2.0 12.0 0.00 0.00 0.00 19 1013.1
20260903073017 71 113 3.0 13.0 0.00 0.00 0.00 18 1012.9
20260903070057 72 113 3.0 10.0 0.00 0.00 0.00 19 1012.9